Theta_e
290 289 286 286 291 289 286 286 288 285 284 282 281 281 282 281 282 282 282 282 281 283 283 286 285 285 286 288 290 291 285 283 284 285 285 286 286 285 284 284 284 284 285 286 285 283 283 283 283 282 282 282 282 282 282 283 283 283 284 285 284 285 284 285 285 285 285 285 285 284 284 284 285 285 286 286 286 286 286 286 287 286 286 286 285 285
291 288 288 290 289 285 284 281 279 280 280 283 281 280 281 280 281 284 284 282 280 284 281 281 282 284 286 288 290 291 288 288 288 286 285 287 287 286 285 284 284 285 286 284 283 282 281 282 281 280 281 282 281 281 281 282 283 283 283 284 284 284 284 284 284 285 286 285 285 284 285 284 284 284 284 284 285 285 286 286 286 286 285 285 285 285
285 287 291 288 285 280 278 280 280 283 282 280 282 280 280 282 281 282 282 280 281 282 282 282 282 285 288 289 292 292 291 292 292 288 290 290 289 286 285 285 285 284 284 283 284 282 282 281 280 280 280 281 283 282 281 283 282 282 282 283 284 283 284 284 284 284 284 284 285 284 284 284 283 284 284 284 284 285 285 285 285 285 285 284 284 284
287 285 288 284 281 282 279 278 280 280 279 280 279 281 282 282 282 282 282 280 283 283 283 283 282 285 288 289 290 292 290 292 292 289 289 290 289 288 286 286 285 284 284 283 283 282 281 281 281 280 279 280 281 282 281 281 282 281 283 282 282 283 283 283 284 286 284 284 284 284 284 284 283 283 284 284 284 284 284 284 285 284 284 284 284 284
289 286 283 280 281 284 281 279 280 280 281 280 282 281 282 282 282 282 282 280 280 281 280 280 283 286 285 286 287 285 282 283 287 286 287 288 288 288 287 287 286 286 285 284 283 283 281 280 280 280 280 280 280 281 281 281 281 281 282 282 282 283 283 283 285 285 286 284 284 283 282 283 283 283 282 282 282 283 283 283 283 283 283 283 283 283
288 287 280 283 282 282 282 281 280 282 280 277 280 283 284 282 282 281 279 282 280 280 280 281 283 283 280 280 282 285 282 286 284 285 287 288 286 285 285 286 286 286 286 285 284 283 282 281 281 280 280 279 280 281 282 282 282 282 282 282 282 282 282 282 283 283 284 284 282 281 281 281 280 280 280 280 280 281 281 281 282 282 282 282 282 282
289 282 284 287 283 282 283 284 281 284 281 282 283 281 283 282 281 280 280 283 278 277 282 280 280 280 282 287 283 284 284 288 289 286 291 291 286 284 286 287 286 285 285 284 284 284 282 281 281 280 279 280 280 281 282 281 281 281 281 281 281 282 281 282 282 282 284 281 281 280 281 281 280 279 280 281 282 281 281 282 281 282 282 282 281 282
283 281 281 282 283 283 282 282 281 284 282 280 280 278 280 280 280 279 281 282 281 280 280 281 283 280 281 283 287 286 285 288 289 290 289 289 288 286 285 286 286 286 284 284 284 283 283 282 281 280 280 280 280 281 281 280 280 280 280 280 280 281 283 281 282 281 282 281 281 280 280 280 280 280 280 281 280 281 281 281 281 281 281 281 281 281
284 283 282 282 281 280 284 282 281 284 283 280 280 278 279 280 279 278 280 278 277 278 277 278 281 278 278 278 279 280 284 286 287 289 290 290 289 288 287 286 286 285 284 284 283 283 283 282 281 281 280 280 280 281 280 280 280 280 279 280 279 279 281 281 280 280 280 281 281 280 280 279 281 281 280 281 281 280 280 279 280 279 279 280 280 281
284 283 283 285 283 284 282 280 280 285 284 282 279 279 278 277 277 277 276 279 275 274 277 279 280 276 281 280 282 279 281 283 285 288 289 289 289 288 287 286 285 284 284 283 284 284 283 282 281 281 281 280 280 281 281 281 280 279 279 279 279 279 278 279 278 280 280 279 281 280 279 278 279 279 279 279 278 278 279 278 278 278 278 278 279 279
284 285 285 284 284 283 280 280 280 280 281 280 281 280 280 277 275 275 275 274 275 272 279 284 280 282 279 281 283 282 283 285 287 287 287 286 286 286 286 285 284 283 283 282 283 283 283 282 281 280 280 280 280 280 280 279 279 278 279 279 278 278 278 279 278 278 278 278 278 278 278 278 278 278 278 277 277 277 277 277 277 277 277 278 278 278
284 283 285 283 283 281 281 281 280 279 279 281 281 280 281 281 275 272 265 271 272 274 277 276 278 281 276 279 280 284 282 283 288 288 289 289 289 289 285 283 283 283 282 282 281 281 280 279 279 279 279 279 279 279 279 279 278 278 278 278 278 278 277 277 277 277 277 277 277 277 277 277 278 277 277 276 276 276 276 276 276 276 276 277 277 277
282 284 282 284 285 284 281 281 281 280 281 280 280 278 276 272 272 272 268 271 270 276 276 273 277 276 278 284 282 283 285 286 283 287 289 290 290 286 281 282 282 281 281 281 280 280 279 279 279 278 279 279 279 278 279 278 278 278 277 278 278 277 277 277 277 277 277 277 277 277 277 277 278 277 277 276 276 276 275 275 275 275 275 276 276 276
282 280 281 285 284 285 286 285 279 279 280 280 282 276 272 270 269 268 270 264 268 274 274 276 277 277 282 283 288 288 289 289 287 286 287 287 288 285 283 281 280 280 280 280 280 280 279 279 279 279 279 279 279 279 278 278 278 278 277 277 278 278 277 277 276 276 276 276 276 277 277 276 277 276 276 276 275 275 275 275 275 275 274 274 275 275
276 281 282 284 284 285 288 290 288 282 279 281 281 283 280 273 270 272 267 273 278 278 272 274 272 274 272 281 282 289 292 291 288 286 284 284 282 281 280 279 279 279 279 279 279 280 280 279 279 279 279 279 279 279 279 278 278 278 277 276 278 277 276 276 276 276 276 276 276 276 276 276 276 275 275 275 276 275 275 274 274 274 274 274 275 275
282 283 280 285 281 286 286 285 282 282 281 279 278 280 277 279 278 276 272 268 269 273 276 270 277 277 283 282 283 278 279 284 285 284 281 283 281 279 279 280 280 279 279 279 279 279 280 280 279 279 279 279 279 279 279 278 278 277 277 276 277 277 276 276 276 276 276 276 276 275 275 275 275 276 276 275 275 274 274 273 273 273 274 274 274 275
280 279 281 283 281 282 282 281 284 284 282 280 281 278 281 282 283 277 272 270 269 267 276 271 277 282 282 285 285 285 282 284 282 282 281 283 282 278 280 281 280 279 279 279 279 279 279 279 279 280 279 279 279 279 278 278 277 277 277 276 276 276 275 275 276 275 275 275 274 275 274 274 274 274 273 273 273 273 273 273 273 273 273 274 274 275
284 283 282 282 284 283 278 281 280 279 283 280 275 279 281 281 281 278 274 270 264 269 276 270 278 281 279 279 283 284 282 285 283 282 282 283 278 278 281 281 281 280 279 279 279 279 279 279 280 279 280 280 279 279 278 277 277 277 277 276 276 275 275 275 275 275 275 274 274 274 274 274 273 273 273 272 272 272 272 272 273 273 273 273 274 274
287 283 284 281 281 281 280 282 284 282 281 279 277 282 282 276 276 275 270 272 270 267 270 275 280 281 282 282 281 282 283 285 285 283 282 282 280 279 281 281 281 279 278 278 278 278 279 279 279 279 279 279 279 279 278 277 276 276 276 276 276 275 275 275 275 275 274 274 273 273 273 273 272 272 272 272 272 272 271 271 272 272 272 272 273 273
287 284 282 280 280 281 281 282 279 279 281 281 282 281 281 279 273 273 278 271 273 270 267 276 279 278 282 282 284 286 285 286 286 283 283 284 284 282 282 282 282 279 279 278 278 278 279 279 279 279 279 278 278 277 276 276 275 275 275 276 274 274 274 274 273 274 273 273 273 272 272 272 272 272 272 271 271 271 271 271 271 271 271 272 272 272
284 283 282 280 279 280 278 280 282 282 278 277 278 276 276 275 277 276 275 273 275 268 269 271 275 280 284 284 285 287 286 286 286 286 286 285 284 284 283 283 282 280 279 279 279 278 278 279 279 279 278 278 277 276 275 275 275 274 274 274 275 274 273 273 273 272 272 272 272 272 271 271 271 271 271 271 271 270 270 271 271 271 271 272 271 272
283 281 283 281 277 278 281 283 283 283 285 282 282 280 282 278 274 272 276 273 267 272 272 269 275 282 285 283 287 286 286 286 286 288 288 286 285 283 282 282 281 281 280 279 279 278 278 278 278 277 277 276 275 275 274 275 274 273 273 273 273 273 272 272 272 272 272 272 271 271 271 271 271 271 270 270 270 270 270 270 270 271 271 270 271 271
286 282 283 283 284 285 282 280 279 280 282 282 282 282 284 282 280 275 274 276 267 276 271 270 268 279 285 285 285 285 284 285 286 286 287 287 285 283 282 282 281 281 280 279 278 278 278 278 277 277 276 275 275 275 274 274 274 274 273 272 272 272 272 272 272 272 271 271 271 270 270 270 270 270 270 269 269 269 270 270 270 270 270 269 270 270
291 283 280 284 286 280 278 278 278 278 282 281 281 278 280 281 282 282 282 277 274 270 274 271 271 280 285 281 285 283 285 286 288 286 288 288 285 283 281 280 279 279 278 278 277 277 277 277 276 276 275 274 274 274 274 274 274 273 272 272 272 271 271 271 271 271 271 270 270 270 270 269 269 269 269 269 269 269 269 269 269 269 269 269 269 269
283 283 283 280 277 282 279 278 278 279 281 278 279 283 282 283 281 278 275 274 273 278 275 275 273 279 287 277 281 281 282 283 284 283 281 284 284 282 281 279 278 278 277 277 276 276 276 276 275 276 276 275 275 274 274 273 273 272 272 271 271 271 271 270 271 270 270 269 269 269 269 269 269 268 268 268 269 268 269 269 269 269 268 269 269 269
288 283 284 278 277 275 274 275 276 272 278 278 276 277 281 281 281 278 277 277 275 278 276 277 278 284 288 281 283 283 280 283 282 282 280 280 282 282 280 279 278 277 277 277 276 275 275 276 276 276 276 275 275 274 274 273 273 272 271 271 271 270 270 270 270 270 269 269 268 268 268 268 268 268 268 268 268 268 268 268 268 268 268 268 267 267
284 284 287 286 283 280 282 284 280 280 276 276 276 279 280 281 283 283 281 278 277 276 275 280 282 283 285 288 285 283 283 283 285 284 283 282 281 279 279 279 278 278 277 276 276 276 276 275 275 276 275 275 275 274 274 273 272 271 271 270 270 269 269 269 269 269 268 268 268 267 268 268 267 268 267 268 267 267 267 267 267 266 266 266 265 265
283 282 286 286 286 286 287 286 284 282 280 280 279 279 281 280 280 279 279 278 281 274 276 282 284 282 283 287 288 288 287 288 288 288 288 287 286 283 283 280 280 277 276 276 275 275 275 276 276 275 275 274 274 274 273 273 272 271 270 269 269 269 268 269 268 268 267 267 267 267 267 267 267 267 267 267 267 266 266 266 265 265 265 264 264 263
283 284 287 286 284 286 287 286 286 280 282 280 281 281 280 281 279 277 279 282 282 279 278 283 284 282 284 287 289 289 290 290 291 291 291 289 287 283 280 279 278 278 276 275 275 276 275 275 275 275 275 274 274 273 272 271 270 270 269 269 269 268 268 268 267 267 267 266 266 267 267 267 267 267 267 266 265 265 264 264 263 263 263 263 262 263
284 284 287 286 285 285 285 285 285 281 280 280 279 281 282 282 280 280 281 282 282 281 283 284 284 284 286 288 290 290 291 291 290 289 288 286 287 285 282 281 280 278 276 275 276 276 276 276 276 275 275 274 273 273 271 270 269 269 268 268 268 267 267 267 267 266 266 266 266 266 267 266 266 266 265 265 264 263 263 262 262 261 261 261 262 262
285 283 289 286 284 283 286 286 284 281 282 282 283 282 282 283 282 281 281 282 283 282 283 282 282 282 288 291 290 291 291 291 289 288 290 291 290 289 287 284 281 279 277 277 276 276 276 276 276 275 274 274 273 273 271 270 269 268 268 268 267 267 267 267 266 266 265 266 266 266 266 266 265 265 264 263 263 262 261 261 260 260 260 260 261 261
285 283 286 285 282 282 285 285 285 282 281 281 282 284 284 283 281 282 281 283 281 281 282 281 279 281 287 289 288 289 289 289 288 289 290 291 291 290 289 288 286 281 278 277 276 276 276 276 275 275 274 274 274 272 271 270 268 268 267 267 267 266 266 266 265 265 265 265 265 265 265 265 264 263 262 262 261 261 260 260 259 259 260 260 260 261
283 280 282 283 280 280 285 285 283 280 280 278 280 283 285 286 286 287 287 286 284 284 281 280 281 287 289 289 287 288 288 286 287 289 289 289 289 289 289 289 289 284 280 278 277 276 276 276 276 275 275 275 273 272 271 270 268 267 267 266 266 266 265 265 265 265 265 265 265 264 264 263 262 262 261 261 260 259 259 259 259 259 259 259 260 261
281 283 284 285 280 280 284 282 280 278 274 277 287 288 288 285 286 284 284 286 287 285 284 287 287 289 289 289 288 288 288 289 290 291 291 290 289 289 290 290 287 285 283 280 278 278 277 277 276 276 276 275 274 273 271 270 269 268 267 267 266 265 265 264 265 264 264 264 264 264 263 262 261 260 260 260 259 259 259 258 258 259 260 260 260 261
283 284 283 285 281 280 280 278 277 273 275 286 286 286 288 287 287 286 286 287 287 288 287 287 287 288 289 290 290 289 290 291 292 291 292 288 287 289 291 290 285 285 283 280 278 278 277 277 276 276 275 274 272 271 269 268 268 267 266 265 265 265 264 264 265 264 264 264 263 262 261 261 260 259 259 259 258 258 258 258 258 259 260 260 260 260
285 284 283 282 282 276 275 278 272 273 284 285 287 289 290 285 285 283 283 285 286 287 288 287 288 289 290 290 290 291 291 291 291 292 291 285 286 289 290 288 289 286 283 281 280 278 277 277 276 275 275 274 270 269 268 267 267 266 265 265 265 265 264 264 264 264 264 263 262 261 261 260 259 259 258 258 258 257 258 258 258 258 259 260 260 261
287 286 285 281 285 278 278 278 277 284 283 284 285 286 287 283 283 282 279 283 288 289 289 288 288 289 290 290 291 291 292 288 287 289 292 286 287 288 288 289 290 287 284 283 281 279 279 278 277 276 273 270 268 268 268 267 266 266 265 264 264 264 264 264 263 263 262 261 261 260 260 260 259 257 257 257 257 257 257 258 258 258 260 259 260 260
288 284 285 282 280 285 278 277 277 277 274 280 286 290 291 287 287 286 284 283 289 290 291 289 289 289 289 290 290 291 285 284 285 288 292 291 288 287 286 287 286 284 283 281 279 279 278 277 275 272 269 268 268 268 267 266 265 265 264 264 264 264 264 263 263 262 261 261 261 260 259 259 258 257 257 256 256 256 257 258 258 259 259 259 259 259
288 287 286 284 280 282 279 276 275 274 277 285 286 289 289 286 287 284 281 280 289 291 292 291 289 290 289 289 289 289 283 283 284 288 291 290 283 284 284 283 282 280 280 279 278 277 276 273 271 269 269 268 267 267 266 265 265 264 264 264 264 264 263 263 262 261 260 260 260 259 258 258 257 257 256 256 256 256 256 257 258 258 259 259 259 259
285 284 284 280 279 280 279 277 275 280 279 285 288 289 285 286 287 284 275 278 289 291 291 291 289 290 290 290 290 288 286 283 285 289 289 282 281 279 281 279 278 278 278 278 278 277 273 270 269 268 268 267 266 266 265 265 265 264 264 264 263 262 262 262 261 261 260 260 259 258 258 257 256 256 255 256 256 256 257 258 258 258 259 259 259 259
281 282 283 278 279 280 280 278 280 281 287 288 289 284 283 288 287 279 275 283 291 288 290 290 290 290 290 289 289 286 288 290 292 287 274 277 276 276 276 277 278 278 277 276 274 273 270 270 269 268 267 267 265 265 265 265 264 264 263 263 262 262 262 261 261 260 259 259 258 257 257 256 256 255 255 256 256 257 257 258 258 258 258 258 258 258
279 282 281 282 279 278 279 277 277 281 286 290 290 284 288 285 278 278 287 293 286 285 287 289 289 290 290 289 288 289 290 291 286 275 277 277 279 276 276 275 274 274 274 273 272 270 269 269 268 267 266 265 264 264 264 265 264 263 262 262 262 262 261 260 259 258 257 257 257 256 255 254 255 255 255 256 256 256 256 257 257 257 257 258 258 257
280 281 275 279 281 281 280 277 276 274 284 293 286 283 287 285 285 291 292 292 290 290 286 286 287 289 288 288 289 289 290 285 281 281 278 277 276 275 274 273 273 272 271 270 270 270 270 268 267 266 265 264 264 264 265 264 263 262 262 262 261 260 260 259 258 257 257 256 255 254 254 254 254 255 255 255 256 256 256 256 256 256 257 257 257 257
287 283 279 282 284 278 277 275 276 284 289 292 288 284 286 290 294 294 293 291 293 293 291 290 288 288 288 288 288 288 288 285 280 278 277 276 276 274 274 273 273 271 270 270 270 270 269 267 265 264 263 263 263 264 264 263 262 261 261 261 260 259 258 257 257 256 255 255 254 254 254 254 254 255 255 254 255 255 255 255 256 256 256 257 257 258
288 287 287 284 286 284 280 284 288 290 291 292 291 292 292 292 294 294 293 293 293 293 293 291 291 290 288 288 289 289 287 284 282 280 279 278 275 273 273 273 271 270 269 269 269 269 268 266 264 263 262 263 263 263 263 263 262 261 261 260 259 258 257 256 255 254 253 253 253 253 253 253 254 254 253 254 254 254 255 255 255 255 256 256 257 259
292 294 293 290 287 291 292 291 288 289 290 290 292 294 293 292 292 292 292 292 292 293 293 292 292 292 289 288 288 288 288 286 283 280 279 277 274 273 272 271 270 269 269 268 268 268 267 264 263 262 261 261 261 261 262 262 262 260 260 259 259 258 257 255 253 253 252 252 253 253 252 253 253 254 254 254 254 254 254 254 255 255 256 257 259 260
291 292 290 287 289 287 283 291 290 289 291 291 291 292 293 293 293 292 292 292 293 293 293 290 291 291 289 287 287 288 288 285 283 281 278 276 273 272 271 270 269 268 267 267 267 266 264 263 261 261 260 259 260 260 260 260 261 260 259 258 257 257 255 253 253 253 252 252 252 253 252 253 254 254 254 253 253 254 254 255 255 255 257 259 259 259
286 293 288 288 288 286 286 291 292 293 293 293 292 291 290 290 292 292 293 293 293 293 293 292 289 287 286 285 287 287 288 285 283 280 278 275 273 272 271 269 268 268 268 267 266 264 263 262 262 260 260 259 259 259 259 259 259 258 257 257 256 255 254 253 253 253 252 252 252 252 252 252 254 253 253 252 252 253 253 254 255 256 258 259 260 259
289 290 285 288 286 288 291 291 292 292 291 292 292 292 292 292 292 292 292 292 292 291 291 291 289 289 287 287 287 287 286 284 283 281 278 275 273 271 270 269 268 268 267 265 264 263 263 262 261 260 260 259 259 259 258 257 257 257 257 256 254 253 253 253 253 252 252 252 252 253 252 251 251 252 252 252 251 253 254 253 254 257 259 262 263 264
287 285 289 288 285 285 286 288 291 286 286 291 292 293 292 292 292 292 292 291 291 291 291 291 290 287 287 288 288 286 286 286 283 280 278 275 274 272 270 268 267 267 265 265 264 263 263 262 261 260 259 259 258 257 257 256 256 256 256 255 254 253 253 252 252 252 252 252 252 252 251 250 251 251 251 251 251 252 252 256 261 262 261 262 266 268
288 288 288 285 286 285 290 292 292 293 292 294 294 295 295 295 293 291 291 292 292 292 292 291 290 288 285 285 287 287 287 287 282 280 278 276 274 272 270 268 267 265 264 263 263 263 262 261 261 260 259 258 257 257 256 255 255 255 255 254 254 253 253 253 252 251 251 251 251 253 251 251 251 251 251 251 251 251 251 252 254 260 264 266 266 267
Wind_Speed
0 2 5 8 13 8 5 10 6 4 5 3 2 2 8 7 8 7 3 3 0 1 11 17 11 13 18 19 21 14 3 10 14 13 11 14 14 11 11 13 15 15 17 8 8 10 11 12 11 10 9 10 9 9 10 9 8 8 8 7 6 4 3 2 2 2 2 2 1 1 2 3 3 3 3 3 3 2 3 4 4 4 5 5 5 5
1 1 11 14 6 6 6 4 5 5 2 4 3 4 8 4 11 5 3 1 4 1 5 4 6 14 17 18 21 15 5 19 20 12 14 20 17 11 12 15 15 16 3 6 8 10 10 11 11 9 9 10 13 10 9 11 10 9 7 8 6 4 4 4 4 3 2 2 2 2 3 2 3 4 3 3 2 3 3 4 5 5 5 6 6 6
1 8 13 1 5 7 6 5 3 5 4 1 4 3 3 9 6 10 4 3 0 1 9 7 11 16 19 19 23 22 17 19 13 11 18 18 17 11 12 14 13 9 12 10 13 10 12 12 11 10 9 10 11 12 11 10 9 8 7 7 6 5 6 5 4 3 3 3 3 3 3 2 3 3 3 3 4 4 5 4 5 5 5 5 6 6
4 8 12 3 7 7 4 3 5 3 3 5 2 2 10 3 3 8 2 3 1 3 6 4 15 19 17 18 25 22 8 15 11 10 17 15 16 13 15 14 12 14 14 16 15 15 13 13 12 10 11 11 9 10 9 9 10 8 8 8 7 7 7 5 5 5 5 3 2 2 2 4 3 4 4 5 5 5 6 6 4 4 5 6 7 7
12 3 1 7 4 6 5 2 5 4 5 2 5 6 6 3 6 8 4 5 4 2 1 10 12 14 9 12 10 2 2 4 9 5 12 14 10 8 5 7 13 17 17 15 13 13 13 14 15 14 12 10 12 11 13 12 11 9 11 10 10 9 8 6 5 6 4 3 2 1 2 3 4 3 3 4 4 4 5 7 7 7 5 7 8 8
13 7 5 7 3 2 4 3 7 7 6 3 8 14 9 5 6 4 3 4 5 4 3 4 12 10 3 6 9 9 6 7 3 4 13 13 8 9 12 13 11 13 11 14 16 17 18 18 15 12 12 13 12 13 13 12 11 10 9 9 8 6 6 6 6 6 4 4 4 2 2 2 2 4 2 3 4 5 5 6 6 7 6 6 7 7
8 2 6 7 5 4 5 6 5 8 6 1 7 6 9 6 4 1 3 2 4 3 1 3 3 18 6 1 2 5 3 11 8 7 15 14 6 9 12 12 12 12 10 9 11 13 15 16 15 15 14 15 14 13 10 10 9 9 9 9 8 8 6 5 5 6 5 4 4 5 4 3 4 5 5 3 4 5 6 6 7 7 6 6 7 7
3 1 5 3 5 6 3 8 6 12 6 6 1 4 5 4 4 5 2 3 6 1 4 1 4 11 19 7 6 5 7 11 16 19 14 14 10 11 12 12 11 10 11 12 14 16 17 17 20 21 19 15 15 11 10 9 8 10 9 9 8 6 6 6 5 5 5 5 5 4 4 4 4 5 7 5 5 5 6 7 8 7 7 7 7 7
4 3 4 4 2 4 9 5 7 10 8 4 2 6 6 5 4 5 3 4 2 4 6 5 2 4 11 4 2 2 5 11 16 17 16 12 9 10 11 11 11 10 12 13 14 16 18 19 19 17 16 13 11 11 11 11 10 8 8 8 7 7 6 5 6 5 5 5 5 4 3 4 4 5 6 5 5 6 6 8 7 7 8 7 7 7
1 1 6 7 7 8 4 2 4 11 5 1 7 6 6 7 7 2 3 1 4 2 10 8 10 6 23 6 3 3 2 10 13 15 14 12 10 7 8 8 7 7 9 11 14 13 14 15 15 14 11 11 13 10 10 9 8 8 8 9 9 8 6 6 6 5 5 5 4 4 4 5 5 4 5 4 6 6 5 7 8 7 7 7 7 6
0 3 5 4 6 4 5 2 1 1 1 6 5 4 3 6 4 3 6 2 3 6 10 16 15 13 16 5 10 9 10 12 12 8 8 8 8 9 7 5 6 8 9 9 10 10 11 10 11 12 15 14 11 9 10 8 9 9 10 10 10 9 6 5 6 6 6 5 4 4 5 6 6 5 5 5 6 5 5 7 7 6 7 7 7 6
0 2 0 2 5 4 4 4 3 2 2 4 2 2 4 2 6 3 4 4 1 10 3 3 12 14 13 6 5 8 5 7 13 12 11 9 9 7 3 5 7 8 9 8 8 9 9 9 10 11 14 14 13 10 9 9 9 10 10 10 10 7 7 5 5 5 4 4 4 4 5 5 6 5 5 6 7 6 7 7 8 7 7 7 6 6
5 8 2 0 4 9 3 7 2 2 1 3 5 4 1 6 7 5 2 2 6 9 2 4 8 4 18 21 2 7 12 12 10 10 11 10 9 4 2 5 6 6 6 8 9 9 11 13 14 16 15 13 15 13 12 10 11 10 10 11 11 9 7 6 5 5 5 4 4 5 5 6 5 6 6 6 7 6 6 6 7 7 8 7 7 6
8 1 1 5 2 6 8 7 2 1 6 6 7 5 4 1 1 5 7 1 7 7 5 4 1 10 10 9 17 20 18 17 13 15 11 7 7 5 4 5 5 7 8 9 10 10 12 12 14 14 14 14 13 13 13 11 12 10 10 11 10 9 7 5 5 4 4 4 5 5 5 5 5 5 5 6 6 6 6 6 7 7 7 8 8 9
5 8 7 8 6 6 12 15 11 7 10 10 3 10 9 8 5 7 3 8 11 11 2 5 2 10 2 7 5 19 21 14 9 10 8 8 7 6 5 5 6 7 8 8 10 12 14 14 14 14 15 14 13 13 11 13 12 11 11 10 10 9 7 6 5 4 5 4 5 5 5 5 4 5 5 6 6 6 6 6 7 8 7 8 8 8
11 11 5 3 1 9 12 3 7 7 6 3 3 5 5 9 6 7 4 3 4 7 10 3 9 4 8 1 3 3 5 8 9 8 6 10 8 5 6 8 9 8 9 10 12 12 13 12 13 12 14 15 13 14 12 13 13 11 11 10 10 10 8 6 5 5 5 5 4 5 5 5 5 5 5 5 5 5 6 7 7 8 8 8 9 9
2 7 1 1 3 4 1 1 0 3 7 5 6 7 6 1 5 2 3 1 3 4 17 1 11 11 7 10 7 7 3 9 6 7 6 13 9 4 9 10 8 9 9 11 13 13 13 11 13 14 14 14 14 13 14 15 13 13 11 10 9 8 7 7 6 6 5 5 4 5 5 5 5 6 6 6 6 7 6 7 7 7 8 9 9 9
6 7 0 4 6 0 0 0 1 4 3 9 4 7 2 2 4 5 5 3 2 7 12 3 16 20 9 16 1 4 3 11 10 10 11 12 4 7 12 10 10 12 12 10 10 10 10 12 14 13 12 15 17 17 15 14 13 11 12 12 11 8 9 7 6 6 5 5 5 4 5 5 5 5 5 5 6 6 7 7 7 7 8 8 8 9
5 9 4 1 3 1 1 1 1 1 3 3 3 2 6 3 1 2 4 6 6 6 8 11 21 18 15 16 4 4 12 15 15 11 10 12 10 13 12 12 11 8 7 10 12 12 12 14 15 16 17 15 14 13 13 12 12 11 10 9 10 11 9 9 6 5 4 4 3 4 4 4 4 4 4 5 6 6 7 8 7 8 9 9 10 10
1 7 3 2 2 1 1 4 8 5 1 1 0 1 1 2 2 6 8 3 5 6 1 19 16 21 4 8 11 13 15 16 11 8 13 17 15 14 12 12 12 11 12 12 12 13 14 14 15 16 16 17 17 15 13 14 11 13 11 11 9 8 7 7 6 5 5 4 4 4 4 4 4 4 5 5 6 6 7 8 8 9 9 10 9 10
3 3 9 1 4 2 3 6 12 15 11 2 2 2 1 1 3 4 1 4 6 5 7 8 14 23 7 10 12 12 15 14 13 15 14 13 14 14 13 13 12 11 12 13 13 13 14 14 13 12 10 10 9 9 11 13 14 12 11 12 10 12 9 7 6 5 4 4 4 4 4 4 4 5 5 6 6 8 8 8 8 8 9 10 10 10
1 2 11 3 1 6 11 4 4 1 11 13 15 14 17 10 4 2 13 2 2 4 9 4 20 21 5 4 8 8 8 8 11 13 13 13 14 12 13 13 11 10 13 13 13 12 11 11 10 8 8 9 11 11 13 12 12 13 13 12 11 9 7 7 6 5 4 4 4 4 4 4 4 4 5 6 7 8 8 8 8 9 9 11 11 11
6 2 3 10 12 14 9 0 1 1 3 4 9 10 10 9 5 5 11 10 1 8 2 3 2 27 3 7 3 6 6 9 12 12 11 11 12 12 13 12 10 11 10 11 11 10 9 9 10 11 12 13 13 13 13 13 13 13 12 11 9 9 7 6 5 4 4 3 4 4 4 4 4 4 6 6 7 8 8 8 9 9 10 11 11 11
5 2 4 11 9 2 3 2 2 1 3 1 5 2 5 13 17 16 12 3 6 2 6 4 5 23 6 2 6 5 7 9 9 12 16 12 8 9 10 9 10 10 11 7 6 6 7 8 9 10 13 14 12 13 15 13 11 11 11 10 8 8 7 6 5 4 3 3 4 4 4 4 4 5 5 6 7 8 8 8 9 9 10 11 10 12
3 5 7 6 3 8 4 2 3 3 0 4 5 10 11 5 6 3 3 1 1 16 7 9 19 22 9 2 1 5 5 9 11 10 7 10 9 8 8 8 7 8 6 8 9 9 9 10 13 13 12 13 11 10 12 13 13 12 10 8 8 7 6 5 5 4 4 4 4 3 3 4 3 4 6 7 7 8 8 8 9 8 10 10 11 11
7 5 8 8 14 14 15 15 12 4 9 5 2 3 10 17 15 5 9 10 13 10 13 10 20 24 18 1 1 7 5 10 9 9 6 9 9 7 7 8 8 8 11 10 8 10 14 14 12 11 12 10 11 11 12 12 12 11 9 8 7 8 7 6 5 5 4 4 4 3 3 3 3 5 6 7 7 7 8 8 8 9 9 9 10 11
4 5 12 16 16 17 19 18 4 9 5 7 7 12 13 13 19 15 10 10 19 4 9 18 26 25 24 25 14 10 6 11 11 9 9 11 11 11 10 10 10 11 11 11 12 10 7 10 14 14 14 12 10 11 9 12 12 10 10 9 7 7 6 6 6 5 4 4 4 3 2 3 4 5 6 6 6 6 7 8 9 9 9 9 10 10
2 7 14 20 24 24 23 22 13 12 9 10 10 11 16 16 15 18 18 25 9 5 18 22 27 17 23 27 33 21 13 15 14 14 11 10 10 11 14 12 8 8 7 6 9 12 15 14 12 14 15 13 12 11 11 11 11 11 10 10 8 7 6 5 6 5 5 4 3 3 3 3 4 5 5 5 5 6 7 7 7 8 8 9 9 10
5 12 16 19 23 22 21 22 15 6 9 8 12 14 16 19 16 19 25 29 11 16 27 24 17 16 21 31 37 24 19 19 20 21 16 12 8 6 5 8 11 12 10 11 14 14 13 14 15 15 14 12 12 14 13 12 10 9 8 8 7 6 7 6 6 5 4 4 3 3 3 3 4 4 4 4 5 6 7 7 7 7 7 7 8 8
1 10 11 15 19 16 19 21 16 9 7 6 7 12 17 20 20 23 28 26 28 29 23 20 20 22 26 34 31 20 16 15 15 12 9 8 10 7 9 12 12 12 12 14 15 15 14 15 14 15 15 13 14 15 14 11 11 10 10 8 7 7 6 6 5 5 4 4 3 3 3 3 4 4 3 4 5 6 6 7 7 7 7 7 8 8
7 10 13 12 13 15 20 20 13 9 11 15 11 12 22 24 12 19 25 29 29 18 22 22 19 23 28 33 23 15 19 17 13 15 21 22 17 14 14 12 11 13 13 14 13 14 15 14 14 14 16 16 15 15 13 11 11 10 9 8 7 7 7 6 5 5 4 4 4 3 3 3 3 3 4 4 5 5 6 6 6 6 7 7 7 8
5 7 6 6 10 14 14 18 14 6 11 12 13 21 31 24 17 20 24 23 11 16 19 15 16 22 29 25 9 15 20 21 20 22 24 22 19 16 17 17 15 13 13 14 15 14 14 15 16 18 20 19 16 13 12 12 12 11 10 8 8 7 7 6 5 5 5 4 4 4 3 3 2 3 4 4 5 5 5 6 5 6 6 7 8 8
7 3 5 9 13 16 17 14 7 3 2 3 14 31 25 18 21 26 26 18 13 13 15 18 24 24 25 16 16 17 18 12 14 19 22 19 16 14 17 20 20 11 13 15 15 17 18 19 20 21 19 16 15 13 13 12 13 13 11 9 8 7 6 6 5 5 5 4 4 3 2 2 2 3 4 5 5 5 5 5 5 5 6 7 7 8
4 7 11 7 13 11 13 8 3 3 13 20 17 1 13 24 24 26 27 23 16 11 16 18 24 27 27 23 19 22 21 19 21 21 18 16 13 14 17 19 15 11 12 13 15 17 17 14 13 15 17 18 15 12 10 14 17 12 9 8 8 7 6 6 6 5 5 4 3 3 1 1 1 3 4 5 5 5 4 4 5 6 6 7 8 9
9 10 11 7 10 13 2 7 5 15 19 15 5 7 14 14 17 26 25 19 19 20 23 26 28 30 31 26 22 21 24 28 24 22 23 10 9 13 20 19 9 13 13 12 13 13 14 16 15 14 15 14 15 14 13 12 11 11 9 8 8 6 6 5 5 5 4 4 3 1 0 1 2 3 5 5 5 4 4 4 5 6 6 7 9 10
15 13 8 7 8 3 3 9 14 21 3 4 8 16 17 5 14 10 16 15 15 20 25 26 25 28 29 26 21 23 25 22 21 22 22 6 12 17 19 15 15 12 12 13 15 16 16 17 20 22 21 15 16 15 15 14 10 10 9 8 7 7 6 5 5 4 4 3 2 1 1 1 2 4 5 5 4 4 5 5 6 7 7 7 8 8
15 11 9 13 10 16 11 13 21 7 13 14 16 20 15 13 12 11 15 17 14 20 27 22 22 27 25 21 25 23 21 10 11 21 19 10 17 18 16 16 16 11 13 12 14 16 18 18 18 16 15 16 16 14 13 11 11 10 10 9 7 6 6 6 5 5 4 3 2 2 1 1 3 4 5 4 4 5 5 7 7 7 6 8 8 10
17 18 13 15 11 12 15 13 9 9 16 18 27 29 20 5 8 6 6 15 12 29 25 19 23 26 23 23 21 22 3 6 17 20 21 14 14 13 12 12 9 6 7 6 6 7 10 11 12 14 18 16 13 11 11 12 11 11 10 9 8 8 7 6 5 5 4 3 3 2 1 1 3 5 5 4 4 5 5 5 5 6 6 8 10 10
17 16 16 17 14 9 12 13 13 13 16 11 21 22 15 6 7 5 3 16 20 32 27 24 24 23 24 23 22 13 4 12 16 19 17 13 7 8 9 9 7 6 7 10 14 14 14 15 20 19 14 15 15 11 11 12 12 10 10 9 9 7 7 7 5 5 4 3 3 2 0 1 3 4 4 5 4 3 5 6 6 6 6 6 7 9
19 14 13 14 16 15 15 13 15 9 12 13 16 19 4 10 10 5 8 18 26 27 22 23 20 22 22 20 17 13 12 15 16 19 10 2 4 6 9 9 8 8 7 8 9 13 16 20 18 16 18 19 15 12 13 12 10 9 10 9 8 8 7 6 6 5 4 3 3 1 1 3 3 4 4 5 4 3 3 5 5 6 7 7 7 8
12 13 15 21 18 22 22 18 11 9 8 8 17 2 11 10 10 6 20 23 24 9 13 13 18 20 18 17 15 12 17 19 19 9 7 6 5 3 2 3 4 8 12 11 12 13 19 15 17 16 15 11 13 13 11 11 10 10 8 9 8 8 6 6 6 5 4 3 2 1 2 2 3 5 5 3 3 3 3 4 6 7 7 8 7 8
7 11 10 14 17 16 18 20 20 13 6 13 11 18 12 7 8 20 24 24 3 6 8 13 17 17 15 17 14 16 17 18 10 5 6 7 8 7 7 9 9 7 7 11 15 23 18 14 14 15 14 10 11 10 11 11 11 9 10 9 8 7 7 6 6 5 4 3 2 2 2 4 4 5 3 2 2 4 4 4 5 6 7 7 8 11
14 11 13 16 11 10 11 14 12 14 10 26 9 4 6 15 20 24 20 21 11 10 10 12 13 14 12 12 15 16 17 8 10 12 8 6 7 10 11 13 14 16 16 17 17 19 20 17 20 18 14 10 9 10 11 13 13 10 8 8 9 8 7 6 6 5 4 4 2 2 3 3 4 2 1 2 3 4 6 5 6 8 8 8 9 10
15 13 6 10 12 13 16 15 14 16 18 17 21 17 17 26 23 20 18 19 19 16 14 15 12 12 11 13 13 13 14 10 4 4 6 8 8 7 8 8 8 11 12 14 19 19 18 21 19 17 10 10 9 8 10 14 15 10 10 10 9 8 7 7 6 5 4 4 3 4 4 3 2 0 1 3 4 3 5 6 6 6 5 7 8 9
15 19 17 18 15 16 14 15 17 13 17 16 24 24 25 29 27 24 21 20 18 15 14 12 14 17 13 14 14 15 14 12 15 15 16 16 15 16 17 17 15 14 12 17 17 15 17 24 23 16 10 9 10 7 8 7 16 13 12 10 10 9 9 8 6 6 6 5 4 4 3 2 0 1 2 3 4 5 6 7 5 7 6 7 8 8
20 27 20 16 14 14 21 14 3 9 14 14 18 22 23 21 22 23 23 20 14 16 15 13 14 14 12 14 13 11 15 15 14 12 10 8 13 12 11 12 10 14 13 15 13 14 14 16 19 20 16 9 8 8 7 6 11 19 11 11 10 9 9 9 9 7 7 5 3 2 2 2 1 2 4 5 3 2 3 5 5 5 7 6 7 8
15 14 17 18 14 12 19 10 19 18 18 21 20 21 21 20 19 19 21 19 19 18 17 12 15 13 9 9 14 18 18 14 14 13 11 9 12 16 19 15 14 17 20 21 16 16 16 21 20 21 18 14 9 8 7 8 6 8 11 11 10 10 10 10 8 7 6 5 3 1 1 3 2 2 4 5 3 3 2 3 4 5 6 6 7 8
14 15 19 20 18 20 19 14 22 23 25 21 19 17 18 21 22 18 17 18 21 20 18 16 10 6 6 9 16 18 16 11 14 14 13 14 15 16 19 18 16 12 10 16 19 20 16 14 15 15 14 13 11 9 8 7 7 8 9 9 9 10 9 9 7 7 7 6 4 3 2 3 3 4 4 4 4 5 6 4 3 5 6 6 7 7
6 7 18 8 16 21 18 21 15 16 15 17 17 16 16 18 20 23 23 21 18 18 18 14 9 13 12 17 16 14 12 13 17 17 16 13 12 13 17 22 18 16 17 17 15 17 17 14 13 14 13 11 10 9 8 8 8 8 9 9 10 10 10 9 8 7 6 4 4 3 2 2 3 4 4 3 2 2 5 7 6 6 7 8 8 8
6 13 8 11 19 19 18 18 18 19 19 18 21 21 20 19 22 23 19 18 18 19 19 20 18 11 12 16 16 14 18 17 13 13 16 16 18 20 20 21 20 24 16 9 11 11 13 13 18 15 11 10 9 9 9 9 8 8 7 9 9 10 13 10 8 7 6 4 4 3 2 3 3 5 5 5 5 6 5 7 10 8 7 7 14 17
13 14 7 16 16 19 13 16 15 20 23 21 21 20 22 21 19 20 20 22 22 21 21 21 19 16 14 15 15 16 18 17 16 16 14 13 14 18 23 26 25 21 18 17 16 15 16 12 9 12 12 10 10 10 9 9 9 8 7 9 9 9 10 10 8 6 5 5 4 4 3 2 3 4 4 3 3 4 7 9 6 6 8 12 15 17
Wind_Direction
288 176 219 210 231 207 214 197 204 201 152 98 107 153 238 237 275 281 248 255 47 276 241 257 256 261 267 270 271 274 174 247 253 253 253 251 244 228 216 217 220 221 227 196 191 183 188 192 187 184 178 179 176 175 174 166 169 171 164 150 173 174 131 151 171 212 203 219 255 226 222 252 259 266 262 258 265 258 263 270 265 261 274 283 280 283
83 320 250 232 233 182 216 171 102 82 91 162 168 203 267 195 256 249 279 21 316 150 291 289 286 266 267 270 272 267 225 262 249 244 249 256 246 231 220 222 220 226 206 160 189 190 187 194 191 182 183 173 170 190 175 177 177 170 159 164 164 136 156 177 192 189 181 192 198 224 256 266 277 289 290 292 276 270 271 270 264 264 273 279 279 283
75 207 247 183 165 101 75 117 139 152 155 92 188 208 280 263 258 283 306 359 312 140 262 288 279 268 267 267 270 265 244 252 259 206 242 247 254 228 222 227 223 209 216 196 204 190 193 193 191 185 189 191 188 171 183 182 165 167 165 172 163 159 169 188 189 181 205 204 204 193 244 245 293 259 267 272 274 283 277 257 247 253 262 274 284 288
284 262 254 157 134 111 54 95 119 81 79 143 106 149 236 215 22 305 283 5 265 183 293 302 287 276 263 257 255 270 263 255 258 224 237 241 246 228 223 216 210 215 211 208 196 195 190 192 191 190 192 189 186 176 179 181 180 171 171 176 173 182 179 182 190 195 207 203 197 219 267 287 259 283 304 296 294 292 289 276 261 280 295 303 297 295
212 203 143 125 136 135 146 145 137 160 223 266 191 222 254 241 227 198 263 304 270 331 21 291 273 273 243 240 271 341 287 302 275 259 259 254 234 241 247 219 209 215 209 208 196 195 190 192 199 195 189 178 192 186 185 182 182 173 179 179 180 179 182 179 182 192 181 181 219 259 299 276 293 272 278 300 288 273 281 292 298 292 294 287 286 288
271 228 139 117 122 97 122 185 214 151 230 314 225 213 220 209 243 258 350 9 8 330 343 9 339 293 296 242 258 273 348 299 249 236 257 251 218 220 233 229 218 228 210 203 197 195 194 198 195 191 189 194 195 194 193 184 183 172 176 175 177 166 165 176 184 178 170 190 184 187 221 274 276 287 283 266 281 299 290 279 283 282 270 269 270 272
219 53 170 188 162 168 186 221 229 167 197 86 262 198 215 217 220 244 298 42 299 212 305 37 100 289 134 255 295 296 299 283 273 212 262 272 207 214 226 228 220 215 202 202 198 193 195 198 193 196 197 197 195 199 183 185 176 178 170 171 169 169 169 167 175 168 175 180 186 198 210 218 236 261 269 238 245 262 274 275 275 279 283 276 277 281
101 53 73 71 137 170 170 249 229 161 132 233 247 117 113 127 162 203 158 194 243 83 315 259 186 269 284 225 241 263 303 278 286 282 260 258 253 227 226 226 222 208 198 195 198 197 199 193 194 197 198 195 198 183 184 175 173 174 173 163 166 161 160 163 160 172 178 181 187 190 205 215 225 233 261 279 280 272 276 281 284 293 292 290 284 286
123 167 158 137 118 146 208 215 179 166 152 222 194 116 140 148 180 149 152 203 223 12 294 250 223 297 257 269 328 33 253 270 262 262 269 265 249 237 230 230 220 205 199 192 196 200 196 196 200 198 195 195 185 189 183 181 176 171 158 154 149 164 164 164 173 173 184 191 184 188 196 228 233 242 257 268 273 282 278 278 282 280 282 284 279 277
335 158 211 163 146 214 219 306 169 170 203 219 125 88 83 73 67 103 126 157 308 58 267 221 183 208 276 169 177 358 182 245 252 254 255 258 255 242 239 237 211 198 198 204 208 202 200 200 197 195 183 181 194 185 180 178 160 153 146 151 158 172 177 170 173 179 179 186 186 187 204 222 242 239 256 257 265 263 267 273 276 280 283 285 284 281
278 271 175 144 195 197 131 70 125 24 86 123 105 76 24 41 35 31 69 78 12 258 245 244 181 183 276 165 189 158 201 202 229 265 273 271 264 253 237 230 193 194 201 206 207 204 203 192 188 177 189 186 183 182 176 168 163 151 156 158 166 177 170 170 171 170 181 179 180 192 203 217 240 249 256 271 268 268 275 275 277 280 284 282 283 288
56 34 239 253 87 109 101 76 37 78 125 117 114 128 30 340 4 37 341 47 199 268 252 276 181 184 223 278 259 233 278 217 197 213 228 239 248 249 199 206 197 197 203 200 195 199 182 175 183 181 192 186 183 170 178 170 158 159 157 157 165 172 178 175 170 168 179 172 185 199 207 219 229 239 246 256 272 276 278 280 288 293 292 288 288 289
269 209 221 302 206 132 123 82 19 21 46 94 82 44 99 274 21 319 32 271 197 237 226 80 134 324 236 245 231 278 255 245 224 219 208 209 232 197 208 208 206 204 193 194 196 189 190 190 185 192 192 181 184 186 177 174 166 160 160 166 162 178 178 177 167 173 177 175 193 200 209 220 228 232 239 250 259 263 269 279 285 293 292 297 300 298
280 20 127 212 91 223 142 171 225 274 204 145 156 144 96 292 142 267 265 210 300 277 260 134 93 249 279 280 215 234 235 230 216 220 227 220 230 228 223 221 215 205 202 199 194 197 199 197 195 193 189 190 187 183 177 173 170 164 162 168 165 167 170 166 163 173 179 193 201 204 209 220 225 235 240 244 252 260 263 268 276 280 282 288 283 289
318 301 240 150 240 177 182 207 194 161 156 198 114 157 188 145 154 248 199 256 262 267 283 269 73 239 110 243 223 213 226 232 223 227 224 243 248 254 251 242 221 213 210 200 203 205 201 196 192 191 190 189 188 180 177 173 173 163 163 163 160 153 168 163 169 168 187 198 207 208 215 223 227 237 244 248 253 260 267 273 277 275 277 278 281 278
219 245 256 176 311 150 185 224 101 106 68 177 171 70 104 224 124 231 205 199 294 333 314 188 214 189 210 6 276 232 307 255 242 233 221 249 236 232 266 241 230 216 210 206 207 206 209 201 193 189 189 190 184 182 178 177 168 171 162 160 160 159 160 161 168 185 188 203 204 209 218 222 228 243 248 257 258 264 269 275 273 275 274 276 280 280
25 273 260 88 51 182 197 73 198 128 201 206 123 204 205 128 147 301 345 56 74 58 266 130 280 259 313 271 218 241 211 253 237 237 237 244 237 231 247 246 232 220 212 205 212 212 204 193 197 197 190 185 181 182 185 175 167 163 155 154 152 153 142 159 176 185 192 203 201 217 217 221 227 233 245 256 269 273 276 273 271 273 274 278 276 280
191 254 259 127 220 306 347 93 24 27 149 103 212 230 130 145 108 126 221 326 69 215 264 33 264 281 297 293 139 176 202 242 230 225 223 238 222 230 239 238 227 220 216 216 218 217 207 202 200 197 195 192 189 185 174 164 164 161 152 154 150 153 159 175 177 188 195 199 210 217 221 225 231 244 255 264 273 279 280 276 276 278 283 280 284 285
136 277 242 267 69 62 340 133 10 345 49 140 189 231 121 231 206 306 85 258 256 249 269 281 271 270 247 256 106 205 214 233 237 226 234 243 229 231 239 242 239 224 218 213 212 209 205 202 201 197 196 191 185 177 165 144 152 148 147 148 150 157 168 169 171 183 194 198 208 217 227 234 242 249 259 266 272 278 276 279 279 282 283 287 286 286
145 213 282 354 96 325 26 116 205 188 342 70 71 51 50 99 176 140 200 204 108 263 343 274 289 270 172 215 169 222 208 219 220 215 223 227 223 222 225 231 229 213 215 215 211 211 209 206 203 197 190 183 181 171 160 150 146 149 149 148 147 142 155 159 169 180 191 201 210 225 237 245 252 263 273 279 285 281 280 283 288 287 287 286 289 287
217 112 249 10 303 76 195 185 211 176 170 160 161 254 353 224 228 113 318 161 186 205 217 279 288 275 246 186 169 204 212 205 194 206 215 217 224 220 218 222 222 214 215 216 212 210 207 204 200 196 184 170 150 143 142 160 157 149 151 153 160 159 169 166 171 175 188 196 217 230 241 255 260 272 276 282 283 283 283 285 287 288 287 292 286 289
135 176 224 205 275 213 237 200 240 192 191 176 178 198 189 155 172 142 256 75 141 174 240 162 254 270 264 179 165 204 213 191 209 210 211 214 220 214 220 229 217 215 223 216 214 209 205 199 190 172 157 148 150 156 162 163 151 154 162 162 153 154 158 158 171 173 183 197 218 226 245 251 264 271 280 288 289 285 284 285 288 290 293 287 288 289
168 162 201 226 230 236 236 132 285 132 137 187 181 222 178 197 150 171 239 236 58 251 84 186 39 268 218 162 172 186 185 203 207 209 217 219 219 219 225 225 222 220 222 216 211 205 199 190 183 176 171 168 168 163 159 161 162 160 158 151 154 151 159 159 164 164 177 200 216 241 248 266 272 281 287 290 287 282 285 290 292 295 292 291 293 296
108 148 213 258 274 317 44 16 78 112 114 63 268 108 126 199 198 210 226 178 191 207 221 239 240 263 262 84 188 192 204 207 218 201 206 219 226 233 233 229 224 223 228 221 201 191 186 169 162 164 169 171 172 171 174 165 157 152 148 146 144 152 150 154 159 169 184 203 229 243 259 263 272 280 282 281 278 281 290 295 295 297 293 295 298 302
139 226 194 240 299 294 325 27 29 352 73 211 201 210 205 236 241 241 62 111 240 230 185 132 252 259 270 323 262 247 230 231 235 242 225 238 243 238 240 240 235 231 230 215 200 187 171 170 176 185 181 177 172 169 167 168 161 151 148 144 148 144 147 147 161 169 190 204 222 237 244 257 271 275 278 278 280 289 295 297 299 298 300 303 304 304
188 168 169 201 226 241 247 243 238 223 207 219 239 119 175 203 206 160 252 220 231 237 133 206 248 257 264 134 195 240 249 261 253 250 247 234 250 248 244 243 233 221 223 211 191 180 190 190 187 181 181 177 179 172 167 162 157 148 143 148 143 140 146 162 165 178 189 200 216 229 240 261 270 272 274 278 284 294 300 301 299 305 306 307 307 310
192 181 190 213 222 232 240 252 223 116 82 188 225 188 210 209 210 209 232 237 230 201 180 228 240 259 270 270 255 242 245 234 253 251 239 252 248 248 252 242 227 221 219 207 197 197 180 188 194 188 182 184 174 173 167 160 153 149 144 144 144 138 154 166 168 181 184 200 209 229 244 255 264 274 276 282 294 303 305 303 307 309 309 311 309 309
118 205 210 225 229 233 239 246 235 153 187 215 198 216 216 204 199 199 210 236 201 79 248 237 243 252 265 274 268 249 239 255 255 254 251 247 243 229 233 232 229 231 222 194 195 195 200 197 185 186 185 176 178 167 161 160 156 153 151 149 149 152 159 169 170 178 187 189 205 216 240 252 263 270 276 289 304 305 303 306 306 310 309 311 311 310
192 222 221 227 236 239 242 248 242 177 212 205 200 210 218 216 202 205 228 237 210 211 237 246 250 250 256 256 260 264 259 260 263 266 264 260 253 235 231 227 224 225 212 201 210 204 199 193 192 187 182 178 167 170 162 156 150 141 136 135 145 158 169 168 167 179 181 188 200 216 233 254 262 267 281 305 309 304 305 306 306 306 305 303 304 305
171 241 240 234 246 241 247 247 245 204 229 231 207 222 231 230 211 212 233 234 226 233 243 254 255 257 257 259 260 269 271 265 265 271 277 261 246 237 234 236 230 225 210 210 210 206 202 201 190 186 180 173 178 169 165 159 157 155 149 150 158 164 169 158 175 172 180 188 201 221 238 254 264 273 309 318 307 303 307 306 306 303 302 305 304 301
183 239 228 248 259 253 254 255 247 209 232 247 244 247 245 244 230 221 234 242 243 252 255 257 264 262 259 258 270 291 279 278 280 279 273 271 274 266 256 251 241 230 215 216 210 205 203 197 189 180 182 184 180 176 166 156 150 148 149 153 160 165 167 163 169 178 177 193 202 220 238 252 268 307 321 312 301 300 303 305 300 300 303 305 303 293
194 256 237 257 257 257 251 253 253 194 216 228 244 249 250 245 239 240 240 238 244 252 257 264 256 252 256 263 278 258 263 265 267 268 268 270 270 272 273 271 258 233 215 213 208 202 198 193 188 185 188 186 181 170 163 159 158 154 155 156 164 161 160 164 172 175 184 194 205 217 226 250 286 323 312 298 295 297 297 291 293 305 310 305 300 296
194 171 209 237 246 249 251 255 250 174 154 264 234 236 247 261 247 249 255 252 223 234 253 252 251 254 265 273 269 263 254 247 257 259 261 265 263 261 264 265 262 235 220 211 203 202 199 195 191 189 187 179 177 172 170 152 151 160 155 159 160 146 158 169 172 175 186 195 199 208 210 260 314 316 293 289 290 289 281 289 306 313 310 304 300 300
187 201 235 218 246 250 250 248 93 170 239 238 245 242 230 242 248 255 255 257 254 215 240 244 259 264 268 266 260 264 272 263 251 253 251 250 258 260 259 259 256 238 227 212 203 203 200 193 189 187 185 180 174 164 145 159 152 149 144 141 143 152 160 167 174 178 192 189 198 189 210 320 351 297 288 287 286 284 295 314 316 310 300 297 305 310
206 211 236 229 251 249 168 82 235 236 236 246 43 231 236 240 244 248 260 259 255 254 250 249 252 260 262 264 264 268 266 265 266 268 263 232 205 241 256 260 236 234 226 207 204 201 193 188 181 173 170 171 165 156 148 144 140 129 132 145 149 156 158 167 167 179 186 184 185 156 85 6 316 292 288 289 287 297 312 317 312 309 310 314 317 316
227 221 226 230 225 18 122 201 235 235 246 358 274 254 249 228 240 262 273 259 253 252 254 251 252 257 260 266 267 258 258 267 274 270 266 199 203 231 248 247 246 233 220 210 202 197 185 180 178 179 179 161 143 146 147 140 138 135 145 144 150 153 163 163 171 176 176 176 164 148 64 6 303 290 287 289 298 310 324 327 320 316 313 312 312 307
230 231 220 247 210 242 222 223 240 316 314 284 279 259 229 207 232 218 253 260 253 251 248 250 255 255 259 259 257 264 268 283 284 273 266 177 224 227 229 237 241 229 218 214 194 195 188 183 177 167 143 137 142 145 145 137 135 136 141 146 151 153 160 164 174 177 170 163 156 128 98 320 294 285 285 294 310 321 329 328 319 315 315 313 312 313
217 221 213 234 227 220 244 245 252 232 240 243 241 253 256 217 219 212 209 269 254 259 253 247 247 255 256 255 257 259 346 304 273 272 272 248 214 229 221 233 241 223 211 186 161 157 155 153 141 137 137 138 143 138 131 135 140 140 142 147 152 158 163 170 176 171 164 159 141 120 104 288 279 276 288 300 305 318 319 310 302 303 313 314 312 310
221 221 227 227 240 221 237 238 235 233 239 227 256 256 258 165 165 122 193 256 253 254 257 251 248 248 250 252 254 254 204 256 258 263 268 261 196 209 208 220 213 188 171 166 161 156 155 147 142 139 129 137 138 142 134 134 138 138 143 151 155 158 162 172 172 165 160 143 123 103 197 258 261 267 281 291 292 312 309 311 311 304 307 300 298 295
213 209 220 235 235 230 238 238 241 214 244 225 242 253 191 146 115 105 275 262 252 250 247 248 243 241 239 241 243 237 221 243 251 255 266 312 180 191 191 184 170 158 154 148 154 156 137 122 125 139 148 150 144 135 137 138 139 138 142 149 150 156 168 169 162 155 128 121 110 117 231 257 250 255 258 272 293 300 299 302 306 311 312 304 300 296
207 215 213 224 221 227 225 244 251 257 243 243 237 180 135 134 125 177 242 250 254 233 225 214 225 230 226 224 217 217 223 222 236 239 116 150 108 133 98 124 155 153 150 145 132 125 129 147 147 148 149 137 134 139 139 139 136 141 142 144 148 163 158 146 142 131 122 114 128 157 230 261 244 251 255 249 279 302 303 310 313 312 308 304 299 293
210 205 228 223 229 224 227 229 233 238 216 227 228 144 143 93 207 228 237 244 224 202 210 202 218 222 216 213 207 214 226 226 221 119 164 161 183 155 151 131 116 94 94 123 135 132 126 143 138 108 106 118 132 136 142 143 135 138 144 146 152 151 139 139 134 123 123 140 136 165 232 229 248 251 250 275 312 340 322 313 312 302 303 297 295 294
181 191 196 200 215 229 233 237 234 241 192 219 158 146 185 204 232 234 243 253 230 222 198 222 221 224 204 215 215 218 232 220 195 205 188 173 155 173 158 159 153 151 142 135 136 149 147 146 145 134 133 131 131 141 148 139 133 139 142 141 147 139 139 135 129 128 139 139 140 182 222 239 237 251 256 329 14 348 321 318 318 311 304 297 295 289
162 214 196 213 181 205 213 206 218 208 224 183 162 195 197 214 227 233 233 247 247 241 234 233 230 231 211 208 213 230 236 223 214 176 186 186 175 138 107 132 132 109 101 63 130 155 151 141 129 126 128 133 140 144 154 152 136 142 142 143 138 137 133 130 129 136 136 140 147 190 219 229 235 257 344 24 13 353 322 318 310 304 294 294 292 290
156 216 204 221 192 207 217 216 223 211 223 186 192 211 213 213 221 231 232 233 237 240 238 235 234 231 205 212 220 220 227 214 209 197 190 196 175 166 166 171 159 160 151 154 151 154 155 150 145 132 129 137 137 141 142 163 135 138 138 141 143 146 140 136 136 137 137 138 165 194 213 220 172 59 43 40 29 354 326 316 316 305 304 296 291 292
197 214 223 239 229 216 238 224 215 219 225 215 214 217 224 223 223 230 236 243 237 241 240 237 237 236 216 208 218 230 227 214 204 204 209 181 179 154 114 121 121 123 123 133 136 154 151 131 119 124 130 128 138 139 148 147 152 139 143 138 147 143 138 136 137 137 140 153 178 200 191 163 122 59 40 39 24 339 291 285 295 290 293 283 291 298
233 217 226 234 225 220 243 192 229 221 220 221 220 224 229 229 226 223 236 241 246 243 245 235 240 239 220 199 207 223 226 206 203 201 190 175 174 168 164 155 156 160 158 163 155 147 146 149 141 144 136 138 153 145 147 140 139 125 133 142 144 137 134 134 134 127 131 150 169 180 103 92 79 67 48 34 360 321 282 280 268 279 279 287 301 298
245 215 237 228 231 223 239 209 221 226 229 225 219 226 231 236 242 240 233 233 238 243 244 244 233 238 195 201 213 221 225 194 191 193 187 185 182 175 162 152 152 152 145 123 141 133 132 151 151 146 142 140 151 151 144 140 132 129 131 139 137 128 127 131 135 129 138 146 145 112 84 73 43 58 64 45 2 325 316 295 277 280 287 295 299 286
283 149 235 206 236 242 248 248 249 254 245 243 240 233 226 228 233 237 237 238 239 246 248 248 214 225 205 220 220 217 216 208 202 191 183 180 175 173 178 163 163 148 140 151 156 157 161 161 146 145 139 135 141 141 138 134 129 134 143 138 133 133 135 133 131 128 128 131 121 97 88 73 59 49 45 17 20 271 262 284 295 291 287 300 303 308
278 247 251 243 244 242 233 234 222 244 245 241 240 236 234 229 234 239 239 241 240 244 245 247 241 226 223 224 221 207 214 218 197 177 185 183 184 178 148 145 142 148 138 122 131 144 126 138 134 137 130 130 137 137 138 137 137 143 142 136 136 142 132 130 126 123 120 124 120 120 92 66 52 51 40 11 346 326 307 256 265 283 300 304 325 333
237 245 240 248 246 256 244 242 228 235 246 242 244 238 237 238 234 237 238 241 239 236 237 238 243 236 229 233 222 212 218 215 194 184 181 185 186 179 173 154 148 148 142 142 141 149 155 154 137 124 126 135 140 142 141 138 144 144 141 141 144 149 139 131 122 118 123 128 132 128 106 98 69 59 47 16 344 333 323 329 315 288 305 332 339 339